Home   Weather   Gloucester   Past weeks

Flag for USA Past Weather in Gloucester, Massachusetts, USA — Yesterday and Last 2 Weeks

Now
53 °F

Fog.


Feels Like: 51 °F
Forecast: 49 / 64 °F
Wind: 6 mph from Southeast

Location: Beverly Municipal Airport

Current Time: Apr 28, 2017 at 6:30:14 am

Latest Report: Apr 28, 2017 at 5:53 am


Visibility: 0 mi

Pressure: 29.91 "Hg

Humidity: 100%

Dew Point: 53 °F

Location of GloucesterLocation

Past Weather in Gloucester — Graph

°F

Gloucester Temperature Yesterday

Maximum temperature yesterday: 65 °F (at 2:53 pm)
Minimum temperature yesterday: 50 °F (at 12:31 am)
Average temperature yesterday: 54 °F

High & Low Weather Summary for the Past Weeks

 TemperatureHumidityPressure
High87 °F (Apr 16, 4:53 pm)100% (Apr 21, 2:17 am)30.57 "Hg (Apr 21, 2:17 am)
Low35 °F (Apr 18, 11:53 pm)23% (Apr 17, 12:53 pm)29.59 "Hg (Apr 16, 6:53 pm)
Average51 °F77%30.08 "Hg
* Reported Apr 13 5:53 am — Apr 28 5:38 am, Gloucester, Weather by CustomWeather, © 2017

Note: Actual official high and low records may vary slightly from our data, if they occured in-between our weather recording intervals... More about our weather records

Advertising

Gloucester Weather History for the Previous 24 Hours

Scroll right to see more
 ConditionsComfort  
Time TempWeatherWind HumidityBarometerVisibility
5:38 am
Fri, Apr 28
53 °FFog.5 mph100%29.92 "Hg1 mi
4:53 am54 °FFog.6 mph97%29.90 "Hg4 mi
4:24 am54 °FFog.6 mph97%29.93 "Hg5 mi
3:53 am55 °FMostly cloudy.6 mph96%29.91 "Hg7 mi
3:44 am55 °FFog.7 mph96%29.93 "Hg5 mi
3:21 am56 °FOvercast.7 mph93%29.92 "Hg10 mi
2:53 am56 °FOvercast.6 mph93%29.90 "Hg10 mi
2:21 am56 °FOvercast.6 mph93%29.92 "Hg10 mi
1:53 am56 °FMostly cloudy.6 mph93%29.91 "Hg10 mi
12:53 am56 °FOvercast.3 mph90%29.92 "Hg10 mi
12:32 am55 °FOvercast.3 mph90%29.93 "Hg10 mi
11:53 pm
Thu, Apr 27
54 °FOvercast.3 mph90%29.91 "Hg10 mi
11:17 pm53 °FMostly cloudy.No wind93%29.93 "Hg10 mi
10:53 pm53 °FOvercast.3 mph89%29.92 "Hg10 mi
9:53 pm53 °FOvercast.7 mph93%29.92 "Hg10 mi
9:34 pm53 °FLow clouds.7 mph96%29.94 "Hg8 mi
8:53 pm52 °FMostly cloudy.5 mph93%29.92 "Hg10 mi
7:53 pm50 °FPartly cloudy.8 mph96%29.92 "Hg10 mi
6:53 pm52 °FScattered clouds.7 mph89%29.89 "Hg10 mi
5:53 pm60 °FSunny.6 mph83%29.90 "Hg10 mi
4:53 pm63 °FSunny.7 mph78%29.89 "Hg10 mi
3:53 pm63 °FScattered clouds.7 mph75%29.89 "Hg10 mi
3:27 pm61 °FScattered clouds.8 mph81%29.91 "Hg10 mi
2:53 pm65 °FPartly sunny.7 mph76%29.89 "Hg10 mi
1:53 pm63 °FScattered clouds.5 mph81%29.89 "Hg10 mi
1:18 pm61 °FOvercast.5 mph83%29.91 "Hg10 mi
12:53 pm59 °FLow clouds.6 mph87%29.90 "Hg10 mi
11:53 am58 °FLow clouds.No wind90%29.91 "Hg10 mi
10:53 am56 °FLow clouds.5 mph97%29.91 "Hg10 mi
9:53 am54 °FFog.7 mph97%29.90 "Hg3 mi
8:53 am51 °FFog.6 mph100%29.91 "Hg3 mi
8:30 am51 °FFog.3 mph100%29.92 "Hg3 mi
8:23 am51 °FFog.5 mph100%29.91 "Hg1 mi
7:53 am51 °FFog.7 mph100%29.89 "Hg1 mi
7:43 am51 °FFog.7 mph100%29.91 "Hg1 mi
6:53 am51 °FFog.5 mph100%29.87 "Hg0 mi
Weather by CustomWeather, © 2017

See weather overviewHow to use our weather pages